Regional Weather Roundup
Issued by NWS

Home | Current Version | Previous Version | Text Only | Print | Product List | Glossary On
Versions: 1 2 3 4 5 6 7 8 9 10 11 12 13 14 15 16 17 18 19 20 21 22 23 24 25 26 27 28 29 30 31 32 33 34 35 36 37 38 39 40 41 42 43 44 45 46 47 48 49 50
000
ASUS44 KMEG 301500
RWRTN
TENNESSEE HOURLY STATE WEATHER ROUNDUP
NATIONAL WEATHER SERVICE MEMPHIS TN
1000 AM CDT THU MAR 30 2017

TNZ002-004-019-021-049-052-054-088>092-301600-
WEST TENNESSEE

CITY           SKY/WX    TMP DP  RH WIND       PRES   REMARKS
MEMPHIS INTL   PTSUNNY   69  60  73 S21G32    29.70F
NWS MEMPHIS      N/A     67 N/A N/A MISG        N/A
JACKSON        MOSUNNY   72  55  55 SW17G44   29.71R
DYERSBURG      PTSUNNY   70  58  65 S15G28    29.68S
PARIS          SUNNY     66  54  63 SW16      29.69F
$$

TNZ008-025-027-028-033-062-065-066-301600-
NORTH MIDDLE TENNESSEE

CITY           SKY/WX    TMP DP  RH WIND       PRES   REMARKS
NASHVILLE      PTSUNNY   73  58  59 SW15      29.76R
CLARKSVILLE    CLOUDY    71  57  61 S16G25    29.71R
SMYRNA         CLOUDY    73  59  61 S16G22    29.77R
CROSSVILLE     PTSUNNY   66  52  60 S10G18    29.91F
$$

TNZ061-075-076-078-094-096-097-301600-
SOUTH MIDDLE TENNESSEE

CITY           SKY/WX    TMP DP  RH WIND       PRES   REMARKS
TULLAHOMA      SUNNY     70  57  64 SE17G25   29.80F
WINCHESTER     SUNNY     70  59  68 SE15      29.81F
MCMINNVILLE    SUNNY     73  57  56 S13       29.79F
COLUMBIA       SUNNY     72  64  78 S13       29.75F
SHELBYVILLE    SUNNY     72  61  68 S21       29.77R
$$

TNZ017-018-042-046-047-301600-
NORTHEAST TENNESSEE

CITY           SKY/WX    TMP DP  RH WIND       PRES   REMARKS
TRI CITIES     MOSUNNY   71  54  54 S15G21    29.98F
$$

TNZ012-013-036-069-073-074-301600-
CENTRAL EAST TENNESSEE

CITY           SKY/WX    TMP DP  RH WIND       PRES   REMARKS
KNOXVILLE      CLOUDY    68  55  63 SW6       29.94S
OAK RIDGE      CLOUDY    69  52  54 CALM      29.95F
GATLINBURG     MOSUNNY   64  52  63 CALM      29.94S
$$

TNZ083-085-099-301600-
SOUTHEAST TENNESSEE

CITY           SKY/WX    TMP DP  RH WIND       PRES   REMARKS
CHATTANOOGA    PTSUNNY   71  57  61 S9        29.92F
$$

SKY/WX REPORTED AS FAIR MEANS FEW OR NO CLOUDS BELOW
12 THOUSAND FEET.





USA.gov is the U.S. government's official web portal to all federal, state and local government web resources and services.